Location: Newark
(42.8481°N, 0.4872°E)
Time: 09:21:31
(UTC+00:00)

A-11 Canister half - Pass Details

Date: 28 October 2020
Orbit: 1516 x 1684 km, 47.2° (Epoch: 04 December)

Event Time Altitude Azimuth Distance (km) Brightness Sun altitude
Exits shadow 01:29:57 10° 114° (ESE) 3,735 11.1 -52.3°
Drops below altitude 10° 01:30:03 10° 114° (ESE) 3,767 11.1 -52.3°
Sets 01:32:57 0° 115° (ESE) 4,698 11.7 -51.9°
